Location: Eschentzwiller
(47.7125°N, 7.3981°E)
Time: 00:22:29
(UTC+00:00)

COSMO-SKYMED 1 - Pass Details

Date: 27 October 2020
Orbit: 621 x 623 km, 97.9° (Epoch: 26 November)

Event Time Altitude Azimuth Distance (km) Brightness Sun altitude
Rises 18:02:08 0° 10° (N) 2,915 5.9 -17.7°
Reaches altitude 10° 18:04:21 10° 7° (N) 2,004 5.1 -18.1°
Maximum altitude 18:08:38 60° 287° (WNW) 714 3.1 -18.8°
Drops below altitude 10° 18:12:54 10° 208° (SSW) 1,987 5.5 -19.5°
Sets 18:15:06 0° 205° (SSW) 2,889 6.3 -19.9°
